• In Hungary
  • List of Countries
  • For 7 days
  • Water Temperature
  • Satellite Maps
  • Weather Map
  • News
  • Weather Widgets
  • user-avatar
    Login

    Hourly Weather Gulczewo

    Today, 23 October, Tuesday

    Time Temperature Precipitation Wind Pressure Humidity
    00:00 +5°C° 0 mm 4 mps 758 mmHg 84%
    01:00 +4°C° 0 mm 4 mps 758 mmHg 85%
    02:00 +3°C° 0 mm 5 mps 757 mmHg 84%
    03:00 +3°C° 0 mm 5 mps 756 mmHg 84%
    04:00 +3°C° 0 mm 5 mps 755 mmHg 83%
    05:00 +3°C° 0.2 mm 6 mps 754 mmHg 82%
    06:00 +4°C° 0.2 mm 7 mps 753 mmHg 80%
    07:00 +4°C° 0.2 mm 8 mps 752 mmHg 78%
    08:00 +3°C° 1 mm 9 mps 751 mmHg 78%
    09:00 +5°C° 1 mm 10 mps 749 mmHg 79%
    10:00 +4°C° 1 mm 11 mps 748 mmHg 79%
    11:00 +6°C° 0.6 mm 11 mps 747 mmHg 79%
    12:00 +6°C° 0.6 mm 11 mps 746 mmHg 79%
    13:00 +7°C° 0.6 mm 11 mps 744 mmHg 79%
    14:00 +8°C° 1.2 mm 11 mps 744 mmHg 80%
    15:00 +8°C° 1.2 mm 10 mps 743 mmHg 82%
    16:00 +10°C° 1.2 mm 9 mps 742 mmHg 83%
    17:00 +8°C° 0.8 mm 9 mps 742 mmHg 82%
    18:00 +9°C° 0.8 mm 8 mps 741 mmHg 80%
    19:00 +9°C° 0.8 mm 8 mps 741 mmHg 79%
    20:00 +9°C° 0.6 mm 8 mps 740 mmHg 78%
    21:00 +9°C° 0.6 mm 7 mps 740 mmHg 78%
    22:00 +9°C° 0.6 mm 7 mps 739 mmHg 78%
    23:00 +8°C° 0.3 mm 7 mps 739 mmHg 76%

    Tomorrow, 24 October, Wednesday

    Time Temperature Precipitation Wind Pressure Humidity
    00:00 +7°C° 0.3 mm 8 mps 738 mmHg 74%
    01:00 +6°C° 0.3 mm 8 mps 738 mmHg 72%
    02:00 +6°C° 0.2 mm 9 mps 738 mmHg 68%
    03:00 +5°C° 0.2 mm 9 mps 739 mmHg 65%
    04:00 +5°C° 0.2 mm 9 mps 739 mmHg 61%
    05:00 +3°C° 0 mm 9 mps 740 mmHg 60%
    06:00 +4°C° 0 mm 8 mps 741 mmHg 58%
    07:00 +3°C° 0 mm 7 mps 742 mmHg 56%
    08:00 +4°C° 0 mm 8 mps 743 mmHg 52%
    09:00 +5°C° 0 mm 10 mps 743 mmHg 48%
    10:00 +6°C° 0 mm 11 mps 744 mmHg 44%
    11:00 +6°C° 0 mm 11 mps 744 mmHg 44%
    12:00 +6°C° 0 mm 11 mps 745 mmHg 44%
    13:00 +7°C° 0 mm 11 mps 746 mmHg 44%
    14:00 +6°C° 0 mm 10 mps 746 mmHg 45%
    15:00 +6°C° 0 mm 9 mps 747 mmHg 46%
    16:00 +6°C° 0 mm 8 mps 747 mmHg 47%
    17:00 +5°C° 0 mm 8 mps 748 mmHg 50%
    18:00 +4°C° 0 mm 7 mps 748 mmHg 52%
    19:00 +4°C° 0 mm 6 mps 749 mmHg 55%
    20:00 +4°C° 0 mm 6 mps 749 mmHg 57%
    21:00 +3°C° 0 mm 5 mps 749 mmHg 60%
    22:00 +3°C° 0 mm 5 mps 750 mmHg 62%
    23:00 +3°C° 0 mm 5 mps 750 mmHg 65%

    Day after tomorrow, 25 October, Thursday

    Time Temperature Precipitation Wind Pressure Humidity
    00:00 +3°C° 0 mm 5 mps 750 mmHg 67%
    01:00 +2°C° 0 mm 5 mps 750 mmHg 70%
    02:00 +3°C° 0 mm 5 mps 749 mmHg 73%
    03:00 +3°C° 0 mm 5 mps 748 mmHg 76%
    04:00 +3°C° 0 mm 5 mps 748 mmHg 79%
    05:00 +3°C° 0.7 mm 6 mps 746 mmHg 82%
    06:00 +4°C° 0.7 mm 7 mps 745 mmHg 85%
    07:00 +5°C° 0.7 mm 7 mps 744 mmHg 89%
    08:00 +6°C° 0.4 mm 8 mps 744 mmHg 85%
    09:00 +7°C° 0.4 mm 8 mps 743 mmHg 82%
    10:00 +10°C° 0.4 mm 9 mps 743 mmHg 78%
    11:00 +8°C° 0.2 mm 9 mps 743 mmHg 76%
    12:00 +8°C° 0.2 mm 9 mps 743 mmHg 73%
    13:00 +8°C° 0.2 mm 9 mps 743 mmHg 70%
    14:00 +8°C° 0.1 mm 9 mps 743 mmHg 70%
    15:00 +9°C° 0.1 mm 8 mps 744 mmHg 69%
    16:00 +9°C° 0.1 mm 8 mps 744 mmHg 69%
    17:00 +8°C° 0 mm 7 mps 745 mmHg 71%
    18:00 +8°C° 0 mm 7 mps 745 mmHg 74%
    19:00 +7°C° 0 mm 6 mps 746 mmHg 77%
    20:00 +7°C° 0 mm 6 mps 746 mmHg 78%
    21:00 +7°C° 0 mm 6 mps 746 mmHg 79%
    22:00 +7°C° 0 mm 5 mps 747 mmHg 81%
    23:00 +6°C° 0 mm 5 mps 747 mmHg 82%

    26 October, Friday

    Time Temperature Precipitation Wind Pressure Humidity
    00:00 +6°C° 0 mm 5 mps 747 mmHg 83%
    01:00 +6°C° 0 mm 5 mps 747 mmHg 84%
    02:00 +6°C° 0 mm 5 mps 747 mmHg 85%
    03:00 +6°C° 0 mm 5 mps 747 mmHg 85%
    04:00 +6°C° 0 mm 5 mps 747 mmHg 86%
    05:00 +5°C° 0 mm 4 mps 747 mmHg 87%
    06:00 +5°C° 0 mm 4 mps 747 mmHg 88%
    07:00 +5°C° 0 mm 4 mps 747 mmHg 89%
    08:00 +6°C° 0 mm 4 mps 747 mmHg 85%
    09:00 +6°C° 0 mm 4 mps 747 mmHg 82%
    10:00 +7°C° 0 mm 4 mps 747 mmHg 78%
    11:00 +8°C° 0 mm 4 mps 746 mmHg 74%
    12:00 +10°C° 0 mm 4 mps 746 mmHg 70%
    13:00 +11°C° 0 mm 4 mps 746 mmHg 65%
    14:00 +10°C° 0 mm 4 mps 745 mmHg 70%
    15:00 +10°C° 0 mm 4 mps 745 mmHg 75%
    16:00 +10°C° 0 mm 4 mps 744 mmHg 80%
    17:00 +10°C° 0 mm 4 mps 744 mmHg 82%
    18:00 +10°C° 0 mm 4 mps 744 mmHg 83%
    19:00 +10°C° 0 mm 4 mps 743 mmHg 85%
    20:00 +10°C° 0 mm 4 mps 743 mmHg 84%
    21:00 +9°C° 0 mm 5 mps 742 mmHg 83%
    22:00 +9°C° 0 mm 5 mps 742 mmHg 82%
    23:00 +9°C° 0 mm 5 mps 741 mmHg 82%

    27 October, Saturday

    Time Temperature Precipitation Wind Pressure Humidity
    00:00 +9°C° 0 mm 5 mps 741 mmHg 82%
    01:00 +8°C° 0 mm 5 mps 741 mmHg 82%
    02:00 +8°C° 0.1 mm 5 mps 740 mmHg 82%
    03:00 +8°C° 0.1 mm 5 mps 740 mmHg 83%
    04:00 +8°C° 0.1 mm 5 mps 740 mmHg 84%
    05:00 +7°C° 0 mm 5 mps 740 mmHg 83%
    06:00 +7°C° 0 mm 5 mps 740 mmHg 82%
    07:00 +6°C° 0 mm 5 mps 741 mmHg 81%
    08:00 +5°C° 0 mm 6 mps 741 mmHg 75%
    09:00 +7°C° 0 mm 6 mps 741 mmHg 70%
    10:00 +6°C° 0 mm 7 mps 742 mmHg 64%
    11:00 +6°C° 0 mm 7 mps 742 mmHg 62%
    12:00 +6°C° 0 mm 7 mps 742 mmHg 60%
    13:00 +8°C° 0 mm 7 mps 742 mmHg 58%
    14:00 +7°C° 0 mm 6 mps 742 mmHg 59%
    15:00 +7°C° 0 mm 5 mps 742 mmHg 59%
    16:00 +7°C° 0 mm 5 mps 742 mmHg 60%
    17:00 +6°C° 0 mm 5 mps 742 mmHg 61%
    18:00 +6°C° 0 mm 4 mps 742 mmHg 61%
    19:00 +6°C° 0 mm 4 mps 742 mmHg 62%
    20:00 +6°C° 0 mm 4 mps 742 mmHg 63%
    21:00 +5°C° 0 mm 4 mps 743 mmHg 63%
    22:00 +5°C° 0 mm 3 mps 743 mmHg 64%
    23:00 +5°C° 0 mm 3 mps 743 mmHg 65%

    28 October, Sunday

    Time Temperature Precipitation Wind Pressure Humidity
    00:00 +5°C° 0 mm 3 mps 743 mmHg 66%
    01:00 +4°C° 0 mm 3 mps 743 mmHg 66%
    02:00 +5°C° 0 mm 2 mps 743 mmHg 68%
    03:00 +5°C° 0 mm 2 mps 742 mmHg 69%
    04:00 +5°C° 0 mm 2 mps 742 mmHg 70%
    05:00 +4°C° 0 mm 2 mps 742 mmHg 72%
    06:00 +4°C° 0 mm 2 mps 742 mmHg 73%
    07:00 +4°C° 0 mm 2 mps 742 mmHg 74%
    08:00 +5°C° 0 mm 2 mps 742 mmHg 72%
    09:00 +4°C° 0 mm 3 mps 743 mmHg 70%
    10:00 +5°C° 0 mm 3 mps 743 mmHg 68%
    11:00 +5°C° 0 mm 4 mps 743 mmHg 66%
    12:00 +6°C° 0 mm 4 mps 743 mmHg 63%
    13:00 +6°C° 0 mm 4 mps 744 mmHg 61%
    14:00 +6°C° 0 mm 4 mps 744 mmHg 61%
    15:00 +6°C° 0 mm 4 mps 744 mmHg 61%
    16:00 +6°C° 0 mm 4 mps 745 mmHg 61%
    17:00 +5°C° 0 mm 4 mps 745 mmHg 61%
    18:00 +4°C° 0 mm 4 mps 746 mmHg 62%
    19:00 +4°C° 0 mm 4 mps 746 mmHg 63%
    20:00 +4°C° 0 mm 4 mps 747 mmHg 63%
    21:00 +3°C° 0 mm 4 mps 747 mmHg 64%
    22:00 +2°C° 0 mm 5 mps 748 mmHg 64%
    23:00 +2°C° 0 mm 5 mps 748 mmHg 66%

    29 October, Monday

    Time Temperature Precipitation Wind Pressure Humidity
    00:00 +2°C° 0 mm 6 mps 748 mmHg 68%
    01:00 +2°C° 0 mm 6 mps 748 mmHg 70%
    02:00 +1°C° 0 mm 6 mps 749 mmHg 72%
    03:00 +1°C° 0 mm 5 mps 749 mmHg 74%
    04:00 +1°C° 0 mm 5 mps 749 mmHg 76%
    05:00 0°C° 0 mm 4 mps 750 mmHg 78%
    06:00 0°C° 0 mm 4 mps 750 mmHg 80%
    07:00 0°C° 0 mm 3 mps 751 mmHg 82%
    08:00 +2°C° 0 mm 3 mps 751 mmHg 78%
    09:00 +3°C° 0 mm 3 mps 751 mmHg 74%
    10:00 +4°C° 0 mm 3 mps 752 mmHg 70%
    11:00 +5°C° 0 mm 3 mps 752 mmHg 67%
    12:00 +5°C° 0 mm 3 mps 752 mmHg 65%
    13:00 +7°C° 0 mm 3 mps 752 mmHg 62%
    14:00 +6°C° 0 mm 2 mps 752 mmHg 64%
    15:00 +6°C° 0 mm 2 mps 752 mmHg 66%
    16:00 +6°C° 0 mm 1 mps 752 mmHg 68%
    17:00 +6°C° 0 mm 1 mps 752 mmHg 69%
    18:00 +6°C° 0 mm 1 mps 752 mmHg 70%
    19:00 +6°C° 0 mm 1 mps 752 mmHg 71%
    20:00 +6°C° 0 mm 1 mps 752 mmHg 72%
    21:00 +6°C° 0 mm 1 mps 752 mmHg 73%
    22:00 +5°C° 0 mm 1 mps 752 mmHg 74%
    23:00 +5°C° 0.2 mm 1 mps 752 mmHg 75%
    Show more